Location: Hancock Field Station
(44.9202°N, 120.4259°W)
Time: 11:01:41
(UTC-07:00)

Nadezhda 4 Rocket - Visible Passes

Search period start: 24 October 2014 00:00
Search period end: 02 November 2014 23:00
Orbit: 949 x 993 km, 82.9° (Epoch: 24 October)

Date Brightness Start Highest point End Pass type
(mag) Time Alt. Az. Time Alt. Az. Time Alt. Az.
24 Oct 6.2 04:12:02 10° NNE 04:16:39 21° ENE 04:21:16 10° ESE visible
24 Oct 3.9 05:56:22 10° NNW 06:02:29 66° W 06:08:37 10° S visible
24 Oct 5.7 19:28:14 10° SW 19:33:43 34° WNW 19:39:13 10° N visible
25 Oct 5.4 04:35:34 10° N 04:41:12 36° ENE 04:46:51 10° SE visible
25 Oct 4.4 06:20:52 10° NNW 06:26:29 38° W 06:32:08 10° SSW visible
25 Oct 6.5 19:53:53 10° WSW 19:58:17 20° WNW 20:02:43 10° NNW visible
26 Oct 4.4 04:59:27 10° N 05:05:35 61° ENE 05:11:43 10° SSE visible
26 Oct 5.0 06:45:45 10° NW 06:50:20 22° W 06:54:57 10° SW visible
26 Oct 4.3 18:30:29 10° SSW 18:36:33 71° W 18:42:41 10° N visible
26 Oct 6.9 20:20:59 10° W 20:23:03 12° WNW 20:25:08 10° NW visible
27 Oct 6.4 03:39:42 10° NNE 03:43:44 18° ENE 03:47:45 10° ESE visible
27 Oct 3.8 05:23:35 10° N 05:29:47 81° W 05:36:01 10° S visible
27 Oct 5.3 18:55:09 10° SW 19:00:53 42° WNW 19:06:39 10° N visible
28 Oct 5.7 04:03:01 10° N 04:08:21 29° ENE 04:13:42 10° SE visible
28 Oct 4.1 05:47:58 10° NNW 05:53:51 47° W 05:59:46 10° SSW visible
28 Oct 6.2 19:20:29 10° WSW 19:25:23 25° WNW 19:30:19 10° NNW visible
29 Oct 4.8 04:26:48 10° N 04:32:48 49° ENE 04:38:50 10° SSE visible
29 Oct 4.8 06:12:41 10° NNW 06:17:46 28° W 06:22:53 10° SW visible
29 Oct 6.7 19:46:49 10° W 19:50:04 15° WNW 19:53:21 10° NNW visible
30 Oct 6.5 03:07:34 10° NNE 03:10:47 14° ENE 03:14:01 10° E visible
30 Oct 3.9 04:50:51 10° N 04:57:05 83° E 05:03:21 10° S visible
30 Oct 5.3 06:38:01 10° NW 06:41:31 16° W 06:45:03 10° WSW visible
30 Oct 5.0 18:22:10 10° SSW 18:28:05 51° WNW 18:34:02 10° N visible
31 Oct 5.9 03:30:33 10° NNE 03:35:30 24° ENE 03:40:27 10° ESE visible
31 Oct 3.9 05:15:08 10° NNW 05:21:12 58° W 05:27:19 10° S visible
31 Oct 5.9 18:47:13 10° SW 18:52:30 30° WNW 18:57:51 10° N visible
01 Nov 5.8 03:54:11 10° N 04:04:30 17° SE 04:05:51 10° SE visible
01 Nov 5.6 05:39:41 10° NNW 05:49:18 16° SW 05:50:41 10° SSW visible
01 Nov 6.5 19:13:05 10° WSW 19:17:07 18° WNW 19:21:12 10° NNW visible
02 Nov 6.2 03:18:08 10° N 03:18:50 14° N 03:18:50 14° N visible
02 Nov 7.0 18:41:18 10° WNW 18:41:57 10° WNW 18:42:36 10° NW visible
